Regional Weather Roundup
Issued by NWS

Home | Current Version | Previous Version | Text Only | Print | Product List | Glossary Off
Versions: 1 2 3 4 5 6 7 8 9 10 11 12 13 14 15 16 17 18 19 20 21 22 23 24 25 26 27 28 29 30 31 32 33 34 35 36 37 38 39 40 41 42 43 44 45 46 47 48 49 50

000
ASUS45 KPSR 240110
RWRAZ

ARIZONA REGIONAL HOURLY WEATHER ROUNDUP
NATIONAL WEATHER SERVICE PHOENIX AZ
600 PM MST WED APR 23 2014

NOTE: FAIR INDICATES FEW OR NO CLOUDS BELOW 12,000 FEET WITH NO
SIGNIFICANT WEATHER AND/OR OBSTRUCTIONS TO VISIBILITY.

AZZ001>003-036-240200-
NORTHWEST ARIZONA

CITY           SKY/WX    TMP DP  RH WIND       PRES   REMARKS
BULLHEAD CITY  SUNNY     81  16   9 N13       29.82S
KINGMAN        SUNNY     70   7   8 N12       29.93R
$$

AZZ004>008-015-016-018-240200-
NORTH CENTRAL ARIZONA

CITY           SKY/WX    TMP DP  RH WIND       PRES   REMARKS
GRAND CANYON   SUNNY     56  11  16 VRB7      30.00S
WILLIAMS       SUNNY     57   5  12 NW12G17   30.07R
PRESCOTT       SUNNY     68   7   9 N13       29.93R
FLAGSTAFF      SUNNY     57   6  13 W7        30.01R
PAYSON         SUNNY     68   9  10 VRB7G13   29.95S
PAGE           SUNNY     68  11  11 N5        29.89R
$$

AZZ009>014-017-240200-
NORTHEAST ARIZONA

CITY           SKY/WX    TMP DP  RH WIND       PRES   REMARKS
WINSLOW        SUNNY     69   8   9 NW18G25   29.90R
SAINT JOHNS    MOSUNNY   64   8  11 W20G36    29.90R
WINDOW ROCK    SUNNY     59   5  11 W16G30    29.95R
SHOW LOW       SUNNY     59  10  14 SW12G21   29.98S
$$

AZZ023-240200-
GREATER PHOENIX AREA

CITY           SKY/WX    TMP DP  RH WIND       PRES   REMARKS
PHOENIX        MOSUNNY   85  10   6 S10       29.76S
BUCKEYE          N/A     82  14   7 W10       29.77S
GLENDALE       MOSUNNY   84   9   6 S17G23    29.77S
LUKE AFB       NOT AVBL
DEER VALLEY    SUNNY     82   8   6 S13       29.76S
SCOTTSDALE     SUNNY     82  13   7 SW10      29.79S
MESA-FALCON    MOSUNNY   82   9   6 SW9       29.79S
MESA-GATEWAY   MOSUNNY   84  12   6 NW9       29.80S
$$

AZZ027-028-240200-
SOUTHWEST MARICOPA COUNTY AND PINAL COUNTY

CITY           SKY/WX    TMP DP  RH WIND       PRES   REMARKS
CASA GRANDE    SUNNY     81  19  10 W14G20    29.81S
GILA BEND      PTCLDY    84  14   7 W8        29.80S
$$

AZZ503-504-507>509-240200-
SOUTHEAST ARIZONA

CITY           SKY/WX    TMP DP  RH WIND       PRES   REMARKS
TUCSON         SUNNY     81  13   7 NW17G23   29.85S
DAVIS-MONTHAN  MOSUNNY   80  17   9 NW13G23   29.84S
NOGALES        MOSUNNY   76  17  11 W12G20    29.90R
SIERRA VISTA   PTSUNNY   73  19  13 W17       29.93R
DOUGLAS        MOSUNNY   78  16   9 W18G30    29.88R
SAFFORD        SUNNY     78   7   6 NW25G35   29.80R
$$

AZZ020-021-025-026-031-240200-
SOUTHWEST ARIZONA

CITY           SKY/WX    TMP DP  RH WIND       PRES   REMARKS
YUMA           MOSUNNY   86   9   5 VRB3      29.79
$$

CAZ031-033-041-043-047-048-061-240200-
SOUTHERN CALIFORNIA

CITY           SKY/WX    TMP DP  RH WIND       PRES   REMARKS
DOWNTOWN L.A.  SUNNY     69  38  32 W5        29.91R
L.A. AIRPORT   MOSUNNY   66  47  50 W13       29.92S
SAN DIEGO      PTSUNNY   68  51  54 W9        29.93S
BURBANK        SUNNY     70  34  26 S8        29.90S
ONTARIO        PTSUNNY   73  44  35 W13       29.89S
RIVERSIDE      MOSUNNY   73  45  36 W12G18    29.89R
PALM SPRINGS   PTSUNNY   85  16   7 NW7       29.80F
EL CENTRO NAS  PTSUNNY   86  15   7 NE5       29.79F
IMPERIAL       MOSUNNY   86  16   7 N3        29.78F
BLYTHE         SUNNY     85  13   7 N10       29.78F
NEEDLES        SUNNY     84  10   6 NE12      29.82S
$$

NVZ020-UTZ003-240200-
SOUTHERN NEVADA-UTAH

CITY           SKY/WX    TMP DP  RH WIND       PRES   REMARKS
LAS VEGAS      MOSUNNY   75  14  10 S9        29.83F
SALT LAKE CITY MOSUNNY   51  16  24 VRB3      30.05
$$

NMZ009-TXZ055-240200-
NEW MEXICO-WEST TEXAS

CITY           SKY/WX    TMP DP  RH WIND       PRES   REMARKS
ALBUQUERQUE    CLOUDY    64  23  21 N18G30    29.82R
EL PASO        FAIR      82  17   9 W26G35    29.75R
$$


........................KEY........................
SKY/WX - SKY CONDITION/WEATHER
TMP    - TEMPERATURE IN FAHRENHEIT
DP     - DEW POINT IN FAHRENHEIT
RH     - RELATIVE HUMIDITY IN PERCENT
WIND   - DIRECTION AND SPEED IN MILES PER HOUR (MPH)
VRB    - VARIABLE WIND DIRECTION
PRES   - MEAN SEA LEVEL PRESSURE IN INCHES OF MERCURY
         F - FALLING PRESSURE   R - RISING PRESSURE
         S - STEADY PRESSURE
VSB    - VISIBILITY IN MILES
HX     - HEAT INDEX IN FAHRENHEIT
WCI    - WIND CHILL INDEX IN FAHRENHEIT
TC     - TEMPERATURE IN CELSIUS WHICH IS ALSO KNOWN AS
         TEMPERATURE IN CENTIGRADE
AFB    - AIR FORCE BASE
         LUKE AFB IS LUKE AIR FORCE BASE
         DAVIS-MONTHAN IS DAVIS-MONTHAN AIR FORCE BASE
NAS    - NAVAL AIR STATION
         EL CENTRO NAS IS EL CENTRO NAVAL AIR STATION
N/A    - NOT AVAILABLE



USA.gov is the U.S. government's official web portal to all federal, state and local government web resources and services.